Location: ????????
(55.7667°N, 37.4833°E)
Time: 10:11:16
(UTC+00:00)

Cosmos 2360 Rocket - Pass Details

Date: 19 May 2025
Orbit: 834 x 842 km, 71.0° (Epoch: 13 June)

Event Time Altitude Azimuth Distance (km) Brightness Sun altitude
Rises 23:11:02 0° 315° (NW) 3,394 5.6 -11.1°
Reaches altitude 10° 23:15:21 10° 284° (WNW) 2,453 4.5 -10.8°
Maximum altitude 23:17:04 11° 266° (W) 2,349 4.2 -10.7°
Drops below altitude 10° 23:18:48 10° 248° (WSW) 2,448 4.2 -10.6°
Enters shadow 23:19:41 - 240° (WSW) 2,573 4.2 -10.5°
